Terminal Aerodrome Forecast
Issued by NWS Aberdeen, SD

Home | Current Version | Previous Version | Text Only | Print | Product List | Glossary On
Versions: 1 2 3 4 5 6 7 8 9 10 11 12 13 14 15 16 17 18 19 20 21 22 23 24 25 26 27 28 29 30 31 32 33 34 35 36 37 38 39 40 41 42 43 44 45 46 47 48 49 50
000
FTAK31 PAFA 240925 AAA
TAFABR
TAF AMD
PABR 240925Z 2409/2506 01016KT 1SM -SN BR BKN004
      TEMPO 2412/2416 4SM -SN BR OVC007
     FM241600 33009KT 4SM -SN BR OVC006
     FM242100 33009KT 6SM -RA BR OVC007=

USA.gov is the U.S. government's official web portal to all federal, state and local government web resources and services.